• In Hungary
  • List of Countries
  • For 7 days
  • Water Temperature
  • Satellite Maps
  • Weather Map
  • News
  • Weather Widgets
  • user-avatar
    Login

    Hourly Weather Sharapovo

    Today, 23 June, Saturday

    Time Temperature Precipitation Wind Pressure Humidity
    00:00 +11°C° 0 mm 1 mps 743 mmHg 86%
    01:00 +11°C° 0 mm 1 mps 743 mmHg 87%
    02:00 +10°C° 0 mm 1 mps 743 mmHg 89%
    03:00 +10°C° 0 mm 1 mps 743 mmHg 86%
    04:00 +11°C° 0 mm 1 mps 744 mmHg 84%
    05:00 +12°C° 0 mm 1 mps 744 mmHg 82%
    06:00 +13°C° 0 mm 1 mps 744 mmHg 76%
    07:00 +14°C° 0 mm 1 mps 744 mmHg 71%
    08:00 +15°C° 0 mm 1 mps 744 mmHg 67%
    09:00 +16°C° 0.1 mm 1 mps 744 mmHg 67%
    10:00 +16°C° 0.1 mm 1 mps 744 mmHg 67%
    11:00 +16°C° 0.1 mm 1 mps 744 mmHg 68%
    12:00 +16°C° 0.2 mm 2 mps 744 mmHg 70%
    13:00 +16°C° 0.2 mm 2 mps 743 mmHg 71%
    14:00 +16°C° 0.2 mm 2 mps 743 mmHg 73%
    15:00 +15°C° 0 mm 2 mps 743 mmHg 76%
    16:00 +14°C° 0 mm 2 mps 742 mmHg 79%
    17:00 +14°C° 0 mm 2 mps 742 mmHg 83%
    18:00 +13°C° 0.9 mm 2 mps 741 mmHg 87%
    19:00 +12°C° 0.9 mm 2 mps 741 mmHg 91%
    20:00 +12°C° 0.9 mm 2 mps 740 mmHg 95%
    21:00 +11°C° 1.6 mm 3 mps 740 mmHg 96%
    22:00 +11°C° 1.6 mm 3 mps 739 mmHg 96%
    23:00 +11°C° 1.6 mm 3 mps 739 mmHg 97%

    Tomorrow, 24 June, Sunday

    Time Temperature Precipitation Wind Pressure Humidity
    00:00 +11°C° 0.5 mm 3 mps 738 mmHg 97%
    01:00 +10°C° 0.5 mm 2 mps 738 mmHg 97%
    02:00 +10°C° 0.5 mm 2 mps 737 mmHg 98%
    03:00 +12°C° 0.1 mm 2 mps 737 mmHg 98%
    04:00 +12°C° 0.1 mm 2 mps 737 mmHg 98%
    05:00 +12°C° 0.1 mm 2 mps 736 mmHg 98%
    06:00 +13°C° 0.3 mm 2 mps 736 mmHg 97%
    07:00 +13°C° 0.3 mm 2 mps 736 mmHg 97%
    08:00 +14°C° 0.3 mm 2 mps 736 mmHg 96%
    09:00 +13°C° 0.2 mm 3 mps 736 mmHg 94%
    10:00 +13°C° 0.2 mm 4 mps 736 mmHg 92%
    11:00 +14°C° 0.2 mm 5 mps 737 mmHg 90%
    12:00 +14°C° 0 mm 5 mps 737 mmHg 83%
    13:00 +15°C° 0 mm 5 mps 738 mmHg 76%
    14:00 +15°C° 0 mm 6 mps 738 mmHg 69%
    15:00 +15°C° 0 mm 5 mps 739 mmHg 69%
    16:00 +14°C° 0 mm 5 mps 739 mmHg 68%
    17:00 +14°C° 0 mm 5 mps 740 mmHg 68%
    18:00 +13°C° 0 mm 4 mps 740 mmHg 73%
    19:00 +13°C° 0 mm 3 mps 741 mmHg 77%
    20:00 +13°C° 0 mm 2 mps 741 mmHg 82%
    21:00 +10°C° 0 mm 2 mps 741 mmHg 87%
    22:00 +9°C° 0 mm 2 mps 742 mmHg 92%
    23:00 +8°C° 0 mm 2 mps 742 mmHg 97%

    Day after tomorrow, 25 June, Monday

    Time Temperature Precipitation Wind Pressure Humidity
    00:00 +9°C° 0 mm 1 mps 743 mmHg 97%
    01:00 +8°C° 0 mm 1 mps 743 mmHg 97%
    02:00 +8°C° 0 mm 1 mps 743 mmHg 97%
    03:00 +9°C° 0 mm 1 mps 743 mmHg 96%
    04:00 +8°C° 0 mm 2 mps 744 mmHg 94%
    05:00 +9°C° 0 mm 2 mps 744 mmHg 93%
    06:00 +12°C° 0 mm 2 mps 744 mmHg 85%
    07:00 +15°C° 0 mm 2 mps 744 mmHg 76%
    08:00 +17°C° 0 mm 3 mps 744 mmHg 68%
    09:00 +18°C° 0 mm 3 mps 744 mmHg 62%
    10:00 +19°C° 0 mm 3 mps 744 mmHg 56%
    11:00 +21°C° 0 mm 4 mps 744 mmHg 50%
    12:00 +20°C° 0.4 mm 4 mps 745 mmHg 54%
    13:00 +20°C° 0.4 mm 4 mps 745 mmHg 58%
    14:00 +20°C° 0.4 mm 4 mps 745 mmHg 62%
    15:00 +20°C° 0.2 mm 4 mps 745 mmHg 62%
    16:00 +20°C° 0.2 mm 4 mps 745 mmHg 61%
    17:00 +20°C° 0.2 mm 3 mps 746 mmHg 60%
    18:00 +18°C° 0 mm 3 mps 746 mmHg 68%
    19:00 +17°C° 0 mm 2 mps 746 mmHg 76%
    20:00 +15°C° 0 mm 2 mps 746 mmHg 84%
    21:00 +14°C° 0 mm 1 mps 747 mmHg 88%
    22:00 +13°C° 0 mm 1 mps 747 mmHg 92%
    23:00 +12°C° 0 mm 1 mps 747 mmHg 96%

    26 June, Tuesday

    Time Temperature Precipitation Wind Pressure Humidity
    00:00 +12°C° 0 mm 1 mps 748 mmHg 96%
    01:00 +11°C° 0 mm 1 mps 748 mmHg 96%
    02:00 +11°C° 0 mm 1 mps 748 mmHg 97%
    03:00 +11°C° 0 mm 1 mps 749 mmHg 96%
    04:00 +12°C° 0 mm 1 mps 749 mmHg 94%
    05:00 +12°C° 0 mm 1 mps 749 mmHg 93%
    06:00 +14°C° 0 mm 1 mps 749 mmHg 84%
    07:00 +16°C° 0 mm 1 mps 750 mmHg 74%
    08:00 +19°C° 0 mm 2 mps 750 mmHg 65%
    09:00 +20°C° 0 mm 2 mps 750 mmHg 60%
    10:00 +21°C° 0 mm 2 mps 750 mmHg 54%
    11:00 +23°C° 0 mm 2 mps 750 mmHg 49%
    12:00 +24°C° 0.2 mm 2 mps 750 mmHg 50%
    13:00 +24°C° 0.2 mm 2 mps 750 mmHg 52%
    14:00 +24°C° 0.2 mm 2 mps 750 mmHg 54%
    15:00 +24°C° 0.1 mm 2 mps 750 mmHg 56%
    16:00 +23°C° 0.1 mm 2 mps 750 mmHg 59%
    17:00 +23°C° 0.1 mm 2 mps 750 mmHg 61%
    18:00 +22°C° 0.1 mm 1 mps 750 mmHg 69%
    19:00 +20°C° 0.1 mm 1 mps 750 mmHg 77%
    20:00 +19°C° 0.1 mm 1 mps 750 mmHg 84%
    21:00 +18°C° 0 mm 1 mps 751 mmHg 87%
    22:00 +16°C° 0 mm 1 mps 751 mmHg 89%
    23:00 +15°C° 0 mm 1 mps 751 mmHg 91%

    27 June, Wednesday

    Time Temperature Precipitation Wind Pressure Humidity
    00:00 +15°C° 0 mm 1 mps 751 mmHg 92%
    01:00 +14°C° 0 mm 1 mps 751 mmHg 93%
    02:00 +14°C° 0 mm 1 mps 751 mmHg 94%
    03:00 +14°C° 0 mm 1 mps 751 mmHg 93%
    04:00 +15°C° 0 mm 1 mps 751 mmHg 92%
    05:00 +15°C° 0 mm 1 mps 752 mmHg 91%
    06:00 +18°C° 0 mm 1 mps 752 mmHg 83%
    07:00 +19°C° 0 mm 2 mps 752 mmHg 75%
    08:00 +21°C° 0 mm 2 mps 752 mmHg 67%
    09:00 +24°C° 0 mm 2 mps 752 mmHg 60%
    10:00 +25°C° 0 mm 2 mps 752 mmHg 54%
    11:00 +26°C° 0 mm 2 mps 752 mmHg 47%
    12:00 +27°C° 0 mm 2 mps 752 mmHg 46%
    13:00 +27°C° 0 mm 2 mps 751 mmHg 45%
    14:00 +28°C° 0 mm 2 mps 751 mmHg 44%
    15:00 +28°C° 0 mm 2 mps 751 mmHg 45%
    16:00 +27°C° 0 mm 2 mps 751 mmHg 47%
    17:00 +27°C° 0 mm 2 mps 751 mmHg 49%
    18:00 +25°C° 0 mm 2 mps 751 mmHg 58%
    19:00 +24°C° 0 mm 2 mps 751 mmHg 66%
    20:00 +21°C° 0 mm 2 mps 751 mmHg 75%
    21:00 +20°C° 0 mm 2 mps 751 mmHg 78%
    22:00 +19°C° 0 mm 2 mps 752 mmHg 80%
    23:00 +17°C° 0 mm 2 mps 752 mmHg 83%

    28 June, Thursday

    Time Temperature Precipitation Wind Pressure Humidity
    00:00 +17°C° 0 mm 2 mps 752 mmHg 84%
    01:00 +16°C° 0 mm 2 mps 752 mmHg 85%
    02:00 +16°C° 0 mm 2 mps 752 mmHg 85%
    03:00 +16°C° 0 mm 2 mps 752 mmHg 84%
    04:00 +16°C° 0 mm 2 mps 752 mmHg 83%
    05:00 +17°C° 0 mm 2 mps 752 mmHg 81%
    06:00 +19°C° 0 mm 2 mps 752 mmHg 74%
    07:00 +21°C° 0 mm 2 mps 753 mmHg 67%
    08:00 +24°C° 0 mm 3 mps 753 mmHg 60%
    09:00 +26°C° 0 mm 3 mps 752 mmHg 54%
    10:00 +27°C° 0 mm 3 mps 752 mmHg 48%
    11:00 +28°C° 0 mm 4 mps 752 mmHg 43%
    12:00 +29°C° 0 mm 4 mps 752 mmHg 42%
    13:00 +29°C° 0 mm 4 mps 752 mmHg 41%
    14:00 +29°C° 0 mm 4 mps 751 mmHg 40%
    15:00 +29°C° 0 mm 3 mps 751 mmHg 43%
    16:00 +29°C° 0 mm 3 mps 751 mmHg 46%
    17:00 +28°C° 0 mm 3 mps 751 mmHg 48%
    18:00 +26°C° 0 mm 3 mps 750 mmHg 57%
    19:00 +25°C° 0 mm 2 mps 750 mmHg 66%
    20:00 +23°C° 0 mm 2 mps 750 mmHg 74%
    21:00 +21°C° 0 mm 2 mps 750 mmHg 75%
    22:00 +20°C° 0 mm 2 mps 750 mmHg 76%
    23:00 +19°C° 0 mm 3 mps 750 mmHg 77%
    Show more